Regional Weather Roundup
Issued by NWS

Home | Current Version | Previous Version | Graphics & Text | Print | Product List | Glossary On
Versions: 1 2 3 4 5 6 7 8 9 10 11 12 13 14 15 16 17 18 19 20 21 22 23 24 25 26 27 28 29 30 31 32 33 34 35 36 37 38 39 40 41 42 43 44 45 46 47 48 49
000
ASUS45 KBOU 221807
RWRCO

WEATHER ROUNDUP FOR COLORADO
NATIONAL WEATHER SERVICE DENVER/BOULDER CO
1200 PM MDT SAT APR 22 2017

NOTE: "FAIR" INDICATES FEW OR NO CLOUDS BELOW 12000 FEET WITH NO
SIGNIFICANT WEATHER AND/OR OBSTRUCTIONS TO VISIBILITY.

COZ001>005-013-030-031-221900-
...NORTHWEST COLORADO...

CITY           SKY/WX    TMP DP  RH WIND       PRES   REMARKS
CRAIG          FAIR      50  22  33 NE7       30.28F
HAYDEN         FAIR      45  23  42 SE3       30.29S
MEEKER         FAIR      50  25  37 CALM      30.27S
MOUNT WERNER   NOT AVBL
STEAMBOAT SPGS FAIR      42  28  56 CALM      30.28S
WALDEN           N/A     36  25  64 CALM      30.31F
$$

COZ006>008-011-221900-
...WEST CENTRAL VALLEYS...

CITY           SKY/WX    TMP DP  RH WIND       PRES   REMARKS
GRAND JUNCTION FAIR      59  18  20 NE10      30.22F
MONTROSE       FAIR      53  23  31 VRB6      30.25S
EAGLE          MOSUNNY   46  21  36 CALM      30.30F
RIFLE          FAIR      53  24  32 VRB3      30.25F
DELTA          FAIR      58  21  23 S6        30.23F
NUCLA          FAIR      55  19  24 NW5       30.25F
$$

COZ017>023-064>068-221900-
...SOUTHWEST COLORADO...

CITY           SKY/WX    TMP DP  RH WIND       PRES   REMARKS
DURANGO        FAIR      53  10  18 VRB5      30.20S
CORTEZ         FAIR      56  15  20 E7        30.20S
PAGOSA SPRINGS FAIR      51   5  15 CALM      30.22S
TELLURIDE      FAIR      45  12  26 W7        30.26S
WOLF CREEK PAS FAIR      32  12  43 S5        30.35S WCI  27
$$

COZ009-010-012-014-032>034-037-058>063-221900-
...CENTRAL COLORADO...

CITY           SKY/WX    TMP DP  RH WIND       PRES   REMARKS
ASPEN          FAIR      45  18  34 W6        30.25F
BUENA VISTA    CLOUDY    44  15  31 CALM      30.28S
COPPER MTN     FAIR      28  14  54 MISG      30.33S
BERTHOUD PASS  PTSUNNY   18   5  57 S6        30.33R WCI   9
COTTONWOOD PAS CLOUDY    37  16  41 CALM      30.31S
GUNNISON       FAIR      46  11  24 NE6       30.25S
KREMMLING      PTSUNNY   52  23  32 CALM      30.30F
LEADVILLE      CLOUDY    31  10  41 VRB3      30.28R
MONARCH PASS   PTSUNNY   27  12  54 NE10G16   30.41S WCI  17
SALIDA         PTSUNNY   46  23  40 SE6       30.35S
SUNLIGHT       PTSUNNY   27  21  80 NE3       30.36R
WILKERSON PASS PTSUNNY  N/A N/A N/A E3        30.35S
$$

COZ069>075-221900-
...SAN LUIS VALLEY/SANGRE DE CRISTO MOUNTAINS...

CITY           SKY/WX    TMP DP  RH WIND       PRES   REMARKS
ALAMOSA        FAIR      49  17  28 VRB3      30.23F
LA VETA PASS   FOG       32  28  86 NE9G17    30.41S VSB 1/2 WCI  24
SAGUACHE       FAIR      46  14  27 S3        30.23F
$$

COZ035-036-038>040-221900-
...NORTHERN COLORADO FRONT RANGE...

CITY           SKY/WX    TMP DP  RH WIND       PRES   REMARKS
DENVER INTL AP PTSUNNY   49  37  63 CALM      30.31S
DMNS CITY PARK   N/A     48  33  56 N7G17     30.31S
AURORA         PTSUNNY   46  35  64 CALM      30.31S
FRONT RANGE AP NOT AVBL
ERIE MUNI ARPT CLOUDY    47  35  64 CALM      30.32S
BOULDER MUN AP FAIR      43  36  75 CALM      30.31F
CENTENNIAL     FAIR      45  35  68 N5        30.30F
BROOMFIELD     PTSUNNY   46  36  66 NW7       30.32S
FORT COLLINS   FAIR      45  36  70 VRB5      30.32F
LONGMONT       CLOUDY    48  39  70 CALM      30.34S
$$

COZ041-046-047-076>085-087-088-221900-
...PIKES PEAK/PALMER DIVIDE AND SOUTHERN FOOTHILLS...

CITY           SKY/WX    TMP DP  RH WIND       PRES   REMARKS
COLO. SPRINGS  CLOUDY    41  35  79 SE10      30.32F
A. F. ACADEMY  LGT RAIN  38  33  79 SE3       30.30S
SCHRIEVER AFB  PTSUNNY   39  36  87 S7        30.33
ELLICOTT       LGT RAIN N/A N/A N/A SW3       30.31F
FALCON         CLOUDY    40  37  86 S9        30.32F
FORT CARSON    CLOUDY    42  33  71 S3        30.32F
LIMON          CLOUDY    44  31  60 CALM      30.31F
MONUMENT HILL  CLOUDY    37  32  81 NE6       30.32S
TRINIDAD       CLOUDY    41  33  73 MISG      30.32S
$$

COZ042>045-048>051-090-091-221900-
...NORTHEAST COLORADO...

CITY           SKY/WX    TMP DP  RH WIND       PRES   REMARKS
GREELEY ARPT   CLOUDY    49  36  61 NW5       30.32F
AKRON          CLOUDY    47  30  51 SW6       30.31F
BURLINGTON     NOT AVBL
WRAY           NOT AVBL
STERLING       CLOUDY    50  37  62 SW6       30.31S
HOLYOKE        PTSUNNY   54  36  50 NE6       30.32F
FORT MORGAN    CLOUDY    50  32  50 CALM      30.32F
$$

COZ086-089-092>099-221900-
...SOUTHEAST COLORADO...

CITY           SKY/WX    TMP DP  RH WIND       PRES   REMARKS
PUEBLO         CLOUDY    48  38  68 E7        30.33S
LA JUNTA       CLOUDY    49  35  58 CALM      30.33R
LAMAR          CLOUDY    51  34  52 N8        30.30S
SPRINGFIELD      N/A     51  31  46 N10       30.29F
$$



USA.gov is the U.S. government's official web portal to all federal, state and local government web resources and services.